Weather in Ananyev

Ukraine / Odesa District     47°43′11″N   29°57′59″E
temp.,
°C
wind,
m/s
gust,
m/s
humid.,
%
clouds,
%
prec.,
mm/h
press.,
hPa
HPBL,
m
27 november, sat
sat2723:00+9sse101789100 0.1 1002995
02:00+9s91693100 3.6 1000951
05:00+10ssw81393100 2.3 998618
08:00+8ssw51191100 2.3 999345
11:00+10ssw6874100 0.0 1000376
14:00+12ssw685915 0.0 1000641
17:00+10ssw410695 0.0 1001252
20:00+8sw22795 0.0 100330
28 november, sun
sun2823:00+7ssw11815 0.0 100410
02:00+6ssw11820 0.0 100510
05:00+6sse22826 0.0 100511
08:00+5sse36869 0.0 1005105
11:00+11sse59665 0.0 1004349
14:00+13sse61079100 0.0 1002809
17:00+11sse5119299 0.0 1002324
20:00+11s51089100 0.1 1002602
29 november, mon
mon2923:00+10sse51095100 0.0 1001363
02:00+11sse61091100 0.0 999498
05:00+11sse61296100 0.0 995578
08:00+10s7159199 0.0 993646
11:00+13s8148150 0.8 991913
14:00+15sw71165100 1.0 9891041
17:00+11w71069100 0.8 9921034
20:00+7wnw613701 1.0 996778
30 november, tue
tue3023:00+5wnw512725 0.0 998555
02:00+3w513690 0.0 1000522
05:00+2wnw514635 0.0 1001484
08:00+1w3867100 0.0 1002333
11:00+4wnw61354100 0.0 1004814
14:00+5wnw71247100 0.0 10031111
17:00+3nw813605 0.0 1004932
20:00+2wnw714675 0.0 1005669
1 december, wed
wed123:000wnw614701 0.0 1006534
02:000wsw47669 0.0 1007234
05:00−1ssw41272100 0.0 1007280
08:00−1sw61268100 0.0 1006339
11:00+3wsw7125065 0.0 1006727
14:00+6w713436 0.0 10061590
17:00+4wnw612555 0.0 1007480
20:00+1w356791 0.0 100979